FW2996 Weather Reports


Display with metric or nautical units.
time (UTC)temp
F
wind
direction
speed
MPH
gust
MPH
rain 1hr
in
rain 24hr
in
rain mn
in
humidity
%
barometer
mb
20260902224538 97 56 1.0 4.0 0.00 0.01 0.01 42 1053.0
20260902224034 98 155 3.0 4.0 0.00 0.01 0.01 41 1052.9
20260902223530 98 142 5.0 8.0 0.00 0.01 0.01 41 1053.1
20260902223029 97 143 1.0 6.0 0.00 0.01 0.01 43 1052.9
20260902222528 97 149 4.0 6.0 0.00 0.01 0.01 43 1053.2
20260902222026 97 126 3.0 4.0 0.00 0.01 0.01 43 1053.2
20260902221521 97 120 6.0 8.0 0.00 0.01 0.01 43 1053.1
20260902221017 96 188 5.0 8.0 0.00 0.01 0.01 45 1053.2
20260902220512 97 201 3.0 6.0 0.00 0.01 0.01 43 1053.3
20260902220006 97 193 6.0 7.0 0.00 0.01 0.01 42 1053.3
20260902215503 97 145 5.0 9.0 0.00 0.01 0.01 44 1053.4
20260902214958 98 161 1.0 8.0 0.00 0.01 0.01 43 1053.3
20260902214457 98 206 2.0 6.0 0.00 0.01 0.01 43 1053.5
20260902213955 97 132 5.0 9.0 0.00 0.01 0.01 43 1053.5
20260902213452 97 197 7.0 10.0 0.00 0.01 0.01 44 1053.4
20260902212951 96 146 1.0 9.0 0.00 0.01 0.01 44 1053.6
20260902212447 96 157 4.0 7.0 0.00 0.01 0.01 44 1053.5
20260902211943 95 174 5.0 10.0 0.00 0.01 0.01 46 1053.7
20260902211439 96 134 5.0 8.0 0.00 0.01 0.01 45 1053.6
20260902210933 95 125 3.0 8.0 0.00 0.01 0.01 46 1054.1
20260902210428 95 196 4.0 8.0 0.00 0.01 0.01 46 1053.6
20260902205926 95 165 2.0 7.0 0.00 0.01 0.01 46 1053.7
20260902205421 96 125 7.0 9.0 0.00 0.01 0.01 45 1053.8
20260902204912 98 163 3.0 9.0 0.00 0.01 0.01 43 1054.2
20260902204411 97 105 3.0 9.0 0.00 0.01 0.01 44 1054.1
20260902203907 96 58 4.0 4.0 0.00 0.01 0.01 45 1054.3
20260902203402 96 79 5.0 8.0 0.00 0.01 0.01 46 1054.2
20260902202856 96 188 3.0 4.0 0.00 0.01 0.01 46 1054.2
20260902202352 97 75 2.0 6.0 0.00 0.01 0.01 45 1054.4
20260902201849 95 64 2.0 3.0 0.00 0.01 0.01 50 1054.5
20260902201348 95 11 0.0 2.0 0.00 0.01 0.01 50 1054.6
20260902200843 93 46 0.0 1.0 0.00 0.01 0.01 55 1054.6
20260902200339 89 42 0.0 0.0 0.00 0.01 0.01 65 1054.6
20260902195834 87 42 0.0 0.0 0.00 0.01 0.01 68 1054.7
20260902195333 85 42 0.0 2.0 0.00 0.01 0.01 70 1054.8
20260902194828 82 29 1.0 2.0 0.00 0.01 0.01 73 1054.8
20260902194327 82 37 1.0 6.0 0.00 0.01 0.01 76 1055.0
20260902193823 81 53 3.0 7.0 0.00 0.01 0.01 74 1055.0
20260902193319 79 35 2.0 4.0 0.07 0.01 0.01 84 1055.2
20260902192818 80 37 3.0 11.0 0.07 0.01 0.01 83 1055.1
20260902192316 87 19 3.0 4.0 0.00 0.00 0.00 73 1055.4
20260902191816 95 90 2.0 10.0 0.00 0.00 0.00 45 1055.4
20260902191312 98 135 4.0 8.0 0.00 0.00 0.00 43 1055.2
20260902190807 98 122 3.0 6.0 0.00 0.00 0.00 42 1055.2
20260902190306 97 187 2.0 7.0 0.00 0.00 0.00 43 1055.4
20260902185803 95 186 2.0 3.0 0.00 0.00 0.00 44 1055.5
20260902185258 94 124 4.0 6.0 0.00 0.00 0.00 47 1055.4
20260902184754 95 30 2.0 3.0 0.00 0.00 0.00 45 1055.6
20260902184249 95 51 0.0 2.0 0.00 0.00 0.00 45 1055.8
20260902183744 95 58 0.0 2.0 0.00 0.00 0.00 45 1055.8
20260902183240 95 133 0.0 3.0 0.00 0.00 0.00 45 1055.8
20260902182736 94 130 2.0 3.0 0.00 0.00 0.00 45 1055.8
20260902182233 96 106 4.0 4.0 0.00 0.00 0.00 43 1056.0
20260902181729 95 44 2.0 3.0 0.00 0.00 0.00 44 1056.0
20260902181228 94 65 3.0 4.0 0.00 0.00 0.00 46 1056.1
20260902180723 94 75 4.0 4.0 0.00 0.00 0.00 46 1056.2
20260902180218 94 47 1.0 1.0 0.00 0.00 0.00 46 1056.4
20260902175713 93 35 0.0 1.0 0.00 0.00 0.00 46 1056.4
20260902175209 94 13 1.0 2.0 0.00 0.00 0.00 46 1056.6
20260902174704 94 34 2.0 3.0 0.00 0.00 0.00 46 1056.4
20260902174200 95 13 2.0 3.0 0.00 0.00 0.00 45 1056.7
20260902173656 97 47 0.0 1.0 0.00 0.00 0.00 44 1056.7
20260902173150 97 40 1.0 2.0 0.00 0.00 0.00 44 1056.8
20260902172646 95 78 1.0 4.0 0.00 0.00 0.00 45 1056.7
20260902172145 93 67 0.0 3.0 0.00 0.00 0.00 46 1057.0
20260902171640 94 134 1.0 3.0 0.00 0.00 0.00 46 1056.9
20260902171136 95 28 0.0 2.0 0.00 0.00 0.00 45 1056.9
20260902170632 96 113 1.0 3.0 0.00 0.00 0.00 44 1057.0
20260902170127 95 116 3.0 6.0 0.00 0.00 0.00 45 1057.2
20260902165626 96 208 2.0 6.0 0.00 0.00 0.00 43 1057.4
20260902165121 96 240 4.0 6.0 0.00 0.00 0.00 44 1057.2
20260902164616 95 314 1.0 6.0 0.00 0.00 0.00 45 1057.5
20260902164115 95 196 4.0 8.0 0.00 0.00 0.00 46 1057.4
20260902163611 95 357 2.0 6.0 0.00 0.00 0.00 46 1057.4
20260902163109 97 353 3.0 4.0 0.00 0.00 0.00 45 1057.5
20260902162608 94 232 2.0 3.0 0.00 0.00 0.00 46 1057.6
20260902162104 95 238 5.0 9.0 0.00 0.00 0.00 47 1057.7
20260902161558 94 274 2.0 4.0 0.00 0.00 0.00 48 1057.6
20260902161054 94 345 1.0 3.0 0.00 0.00 0.00 49 1057.6
20260902160549 92 355 1.0 3.0 0.00 0.00 0.00 51 1057.4
20260902160044 93 237 5.0 6.0 0.00 0.00 0.00 49 1057.6
20260902155538 92 324 3.0 4.0 0.00 0.00 0.00 50 1057.4
20260902155036 91 258 0.0 4.0 0.00 0.00 0.00 51 1057.7
20260902154532 92 224 7.0 8.0 0.00 0.00 0.00 51 1057.5
20260902154027 90 331 2.0 7.0 0.00 0.00 0.00 53 1057.6
20260902153525 92 254 4.0 7.0 0.00 0.00 0.00 53 1057.7
20260902153021 91 153 0.0 3.0 0.00 0.00 0.00 54 1057.6
20260902152518 90 235 4.0 7.0 0.00 0.00 0.00 56 1057.7
20260902152013 89 214 4.0 7.0 0.00 0.00 0.00 57 1057.7
20260902151508 90 265 2.0 4.0 0.00 0.00 0.00 57 1057.7
20260902151007 89 313 3.0 4.0 0.00 0.00 0.00 57 1057.8
20260902150504 87 221 4.0 7.0 0.00 0.00 0.00 60 1057.7
20260902150004 87 271 1.0 6.0 0.00 0.00 0.00 59 1057.7
20260902145453 88 224 2.0 8.0 0.00 0.00 0.00 60 1057.7
20260902144953 87 224 4.0 6.0 0.00 0.00 0.00 61 1057.7
20260902144450 87 240 4.0 8.0 0.00 0.00 0.00 63 1057.9
20260902143949 85 213 3.0 8.0 0.00 0.00 0.00 64 1057.7
20260902143445 86 217 2.0 8.0 0.00 0.00 0.00 65 1057.6
20260902142940 84 220 5.0 8.0 0.00 0.00 0.00 68 1057.7
20260902142436 85 283 1.0 7.0 0.00 0.00 0.00 67 1057.7
20260902141931 84 308 4.0 7.0 0.00 0.00 0.00 69 1057.8
20260902141426 83 247 3.0 4.0 0.00 0.00 0.00 71 1057.7
20260902140926 82 241 3.0 7.0 0.00 0.00 0.00 72 1057.6
20260902140422 82 197 3.0 7.0 0.00 0.00 0.00 74 1057.8
20260902135921 81 222 4.0 8.0 0.00 0.00 0.00 74 1057.6
20260902135417 81 238 4.0 7.0 0.00 0.00 0.00 75 1057.8
20260902134915 81 236 0.0 2.0 0.00 0.00 0.00 75 1057.7
20260902134412 80 235 1.0 4.0 0.00 0.00 0.00 77 1057.8
20260902133907 80 252 4.0 4.0 0.00 0.00 0.00 77 1057.6
20260902133406 79 217 2.0 4.0 0.00 0.00 0.00 78 1057.5
20260902132901 79 232 3.0 6.0 0.00 0.00 0.00 78 1057.6
20260902132356 79 249 3.0 4.0 0.00 0.00 0.00 79 1057.5
20260902131852 78 233 2.0 4.0 0.00 0.00 0.00 79 1057.6
20260902131349 77 254 2.0 2.0 0.00 0.00 0.00 81 1057.4
20260902130848 76 249 1.0 2.0 0.00 0.00 0.00 83 1057.3
20260902130344 76 298 0.0 1.0 0.00 0.00 0.00 83 1057.5
20260902125838 75 320 0.0 1.0 0.00 0.00 0.00 84 1057.3
20260902125334 75 321 0.0 0.0 0.00 0.00 0.00 84 1057.2
20260902124831 74 321 0.0 0.0 0.00 0.00 0.00 84 1057.0
20260902124327 74 321 0.0 0.0 0.00 0.00 0.00 84 1057.2
20260902123827 74 321 0.0 1.0 0.00 0.00 0.00 84 1056.9
20260902123323 74 321 0.0 1.0 0.00 0.00 0.00 84 1057.0
20260902122821 74 321 1.0 1.0 0.00 0.00 0.00 85 1056.9
20260902122318 74 321 0.0 0.0 0.00 0.00 0.00 85 1056.7
20260902121817 74 321 0.0 0.0 0.00 0.00 0.00 85 1056.7
20260902121313 73 321 0.0 0.0 0.00 0.00 0.00 85 1056.8
20260902120808 73 321 0.0 0.0 0.00 0.00 0.00 86 1056.8
20260902120305 73 321 0.0 0.0 0.00 0.00 0.00 85 1057.2
20260902115759 74 321 0.0 0.0 0.00 0.00 0.00 84 1056.9
20260902115255 74 321 0.0 0.0 0.00 0.00 0.00 84 1057.0
20260902114751 74 321 0.0 1.0 0.00 0.00 0.00 85 1056.8
20260902114248 74 321 0.0 0.0 0.00 0.00 0.00 84 1056.7
20260902113742 75 321 0.0 0.0 0.00 0.00 0.00 82 1056.6
20260902113237 75 321 0.0 0.0 0.00 0.00 0.00 81 1056.6
20260902112736 76 321 0.0 0.0 0.00 0.00 0.00 81 1056.5
20260902112234 76 321 0.0 0.0 0.00 0.00 0.00 80 1056.6
20260902111728 76 321 0.0 0.0 0.00 0.00 0.00 79 1056.6
20260902111224 77 321 0.0 1.0 0.00 0.00 0.00 79 1056.7
20260902110720 77 321 0.0 1.0 0.00 0.00 0.00 78 1056.7
20260902110216 77 321 0.0 0.0 0.00 0.00 0.00 79 1056.4
20260902105710 77 321 0.0 0.0 0.00 0.00 0.00 79 1056.6
20260902105205 77 321 0.0 0.0 0.00 0.00 0.00 78 1056.5
20260902104700 77 321 0.0 0.0 0.00 0.00 0.00 77 1056.6
20260902104156 77 321 0.0 0.0 0.00 0.00 0.00 77 1056.4
20260902103654 78 321 0.0 1.0 0.00 0.00 0.00 76 1056.4
20260902103150 78 307 1.0 2.0 0.00 0.00 0.00 76 1056.6
20260902102647 78 327 2.0 4.0 0.00 0.00 0.00 76 1056.3
20260902102144 78 269 2.0 3.0 0.00 0.00 0.00 77 1056.5
20260902101639 78 280 0.0 4.0 0.00 0.00 0.00 76 1056.5
20260902101138 78 284 1.0 3.0 0.00 0.00 0.00 76 1056.4
20260902100633 79 330 2.0 4.0 0.00 0.00 0.00 76 1056.4
20260902100128 79 239 2.0 6.0 0.00 0.00 0.00 76 1056.3
20260902095627 79 315 3.0 7.0 0.00 0.00 0.00 76 1056.3
20260902095126 79 216 3.0 8.0 0.00 0.00 0.00 77 1056.4
20260902094621 78 253 3.0 6.0 0.00 0.00 0.00 77 1056.4
20260902094118 79 289 3.0 8.0 0.00 0.00 0.00 77 1056.5
20260902093611 79 216 5.0 8.0 0.00 0.00 0.00 77 1056.3
20260902093106 79 231 7.0 9.0 0.00 0.00 0.00 77 1056.4
20260902092601 79 250 4.0 9.0 0.00 0.00 0.00 78 1056.4
20260902092056 79 247 3.0 8.0 0.00 0.00 0.00 77 1056.4
20260902091551 79 267 5.0 8.0 0.00 0.00 0.00 77 1056.3
20260902091047 79 238 3.0 7.0 0.00 0.00 0.00 77 1056.5
20260902090542 79 269 4.0 7.0 0.00 0.00 0.00 77 1056.4
20260902090041 79 244 3.0 6.0 0.00 0.00 0.00 77 1056.5
20260902085536 79 235 3.0 7.0 0.00 0.00 0.00 77 1056.4
20260902085032 78 254 4.0 6.0 0.00 0.00 0.00 77 1056.4
20260902084528 79 250 1.0 3.0 0.00 0.00 0.00 77 1056.7
20260902084023 79 204 4.0 4.0 0.00 0.00 0.00 76 1056.8
20260902083518 79 250 6.0 7.0 0.00 0.00 0.00 76 1056.6
20260902083012 79 220 4.0 7.0 0.00 0.00 0.00 76 1056.6
20260902082508 79 241 5.0 7.0 0.00 0.00 0.00 76 1056.6
20260902082004 79 237 2.0 4.0 0.00 0.00 0.00 76 1056.7
20260902081501 79 239 3.0 6.0 0.00 0.00 0.00 75 1056.9
20260902081000 79 240 2.0 6.0 0.00 0.00 0.00 75 1056.6
20260902080457 79 154 1.0 3.0 0.00 0.00 0.00 75 1056.8
20260902075956 79 185 1.0 2.0 0.00 0.00 0.00 75 1056.6
20260902075452 80 204 0.0 2.0 0.00 0.00 0.00 74 1056.7
20260902074948 80 232 2.0 3.0 0.00 0.00 0.00 74 1056.5
20260902074443 80 211 1.0 2.0 0.00 0.00 0.00 74 1056.7
20260902073938 80 231 2.0 3.0 0.00 0.00 0.00 74 1056.7
20260902073434 80 229 4.0 4.0 0.00 0.00 0.00 73 1056.7
20260902072930 80 236 2.0 3.0 0.00 0.00 0.00 73 1056.8
20260902072426 80 235 2.0 4.0 0.00 0.00 0.00 74 1056.8
20260902071922 80 244 2.0 6.0 0.00 0.00 0.00 74 1056.8
20260902071421 80 241 2.0 3.0 0.00 0.00 0.00 75 1056.8
20260902070918 80 242 2.0 3.0 0.00 0.00 0.00 76 1056.8
20260902070414 80 237 2.0 3.0 0.00 0.00 0.00 76 1057.0
20260902065912 80 233 1.0 4.0 0.00 0.00 0.00 76 1056.9
20260902065407 80 191 0.0 1.0 0.00 0.00 0.00 76 1056.9
20260902064903 80 217 2.0 3.0 0.00 0.00 0.00 76 1056.9
20260902064358 80 180 2.0 3.0 0.00 0.00 0.00 76 1057.0
20260902063854 80 294 1.0 6.0 0.00 0.00 0.00 75 1057.0
20260902063349 80 205 2.0 3.0 0.00 0.00 0.00 74 1056.8
20260902062849 80 182 1.0 4.0 0.00 0.00 0.00 75 1056.9
20260902062348 80 185 2.0 3.0 0.00 0.00 0.00 75 1056.8
20260902061848 80 227 2.0 3.0 0.00 0.00 0.00 76 1057.0
20260902061343 80 127 1.0 2.0 0.00 0.00 0.00 75 1057.0
20260902060839 81 203 2.0 4.0 0.00 0.00 0.00 75 1057.3
20260902060335 81 231 1.0 4.0 0.00 0.00 0.00 75 1057.0
20260902055830 81 147 1.0 3.0 0.00 0.00 0.00 75 1057.0
20260902055326 81 147 2.0 3.0 0.00 0.00 0.00 75 1057.2
20260902054822 81 156 5.0 7.0 0.00 0.00 0.00 75 1057.0
20260902054317 81 180 2.0 4.0 0.00 0.00 0.00 75 1057.2
20260902053812 81 198 4.0 6.0 0.00 0.00 0.00 74 1056.9
20260902053307 81 207 3.0 4.0 0.00 0.00 0.00 74 1057.0
20260902052806 81 171 5.0 6.0 0.00 0.00 0.00 74 1057.2
20260902052306 81 171 2.0 7.0 0.00 0.00 0.00 74 1057.0
20260902051801 82 157 2.0 3.0 0.00 0.00 0.00 74 1057.0
20260902051255 82 161 3.0 4.0 0.00 0.00 0.00 73 1057.0
20260902050751 82 138 2.0 4.0 0.00 0.00 0.00 72 1057.0
20260902050246 82 186 2.0 6.0 0.00 0.00 0.00 72 1056.8
20260902045745 82 135 2.0 6.0 0.00 0.00 0.00 72 1056.9
20260902045242 82 168 3.0 4.0 0.00 0.00 0.00 71 1056.7
20260902044737 82 157 2.0 4.0 0.00 0.00 0.00 70 1056.9
20260902044232 83 172 3.0 4.0 0.00 0.00 0.00 70 1056.7
20260902043727 83 164 2.0 3.0 0.00 0.00 0.00 70 1057.0
20260902043223 83 176 3.0 4.0 0.00 0.00 0.00 69 1057.2
20260902042722 83 114 2.0 4.0 0.00 0.00 0.00 69 1056.8
20260902042217 83 135 2.0 4.0 0.00 0.00 0.00 68 1057.0
20260902041712 83 149 1.0 8.0 0.00 0.00 0.00 67 1057.0
20260902041207 84 120 3.0 6.0 0.00 0.00 0.00 67 1056.9
20260902040706 84 154 4.0 6.0 0.00 0.00 0.00 67 1056.9
20260902040202 84 165 2.0 6.0 0.00 0.00 0.00 66 1057.0
20260902035700 84 144 3.0 8.0 0.00 0.00 0.00 66 1056.9
20260902035156 84 147 3.0 4.0 0.00 0.00 0.00 66 1056.9
20260902034655 83 167 4.0 6.0 0.00 0.00 0.00 66 1056.7
20260902034154 84 142 2.0 6.0 0.00 0.00 0.00 66 1056.7
20260902033653 83 130 4.0 4.0 0.00 0.00 0.00 66 1056.7
20260902033148 83 121 1.0 2.0 0.00 0.00 0.00 66 1056.8
20260902032647 83 111 1.0 1.0 0.00 0.00 0.00 66 1056.6
20260902032142 84 111 1.0 2.0 0.00 0.00 0.00 66 1056.5
20260902031641 84 111 1.0 2.0 0.00 0.00 0.00 65 1056.4
20260902031138 84 111 1.0 2.0 0.00 0.00 0.00 65 1056.3
20260902030633 84 111 2.0 3.0 0.00 0.00 0.00 65 1056.3
20260902030132 84 120 1.0 1.0 0.00 0.00 0.00 65 1056.2
20260902025632 84 120 0.0 1.0 0.00 0.00 0.00 64 1056.1
20260902025128 85 120 2.0 3.0 0.00 0.00 0.00 63 1055.9
20260902024623 85 131 1.0 3.0 0.00 0.00 0.00 63 1055.9
20260902024117 85 101 2.0 3.0 0.00 0.00 0.00 63 1055.7
20260902023613 85 112 2.0 3.0 0.00 0.00 0.00 63 1055.6
20260902023108 85 106 1.0 1.0 0.00 0.00 0.00 63 1055.4
20260902022608 86 106 1.0 2.0 0.00 0.00 0.00 63 1055.5
20260902022104 86 105 1.0 1.0 0.00 0.00 0.00 61 1055.4
20260902021559 87 119 1.0 3.0 0.00 0.00 0.00 60 1055.3
20260902021053 87 131 2.0 6.0 0.00 0.00 0.00 60 1055.1
20260902020549 87 122 2.0 6.0 0.00 0.00 0.00 59 1055.2
20260902020045 87 141 3.0 4.0 0.00 0.00 0.00 59 1055.2
20260902015541 87 121 1.0 4.0 0.00 0.00 0.00 59 1055.0
20260902015036 88 168 5.0 6.0 0.00 0.00 0.00 59 1055.1
20260902014532 88 167 3.0 4.0 0.00 0.00 0.00 58 1055.1
20260902014028 88 140 4.0 8.0 0.00 0.00 0.00 57 1055.1
20260902013522 88 152 3.0 3.0 0.00 0.00 0.00 58 1054.9
20260902013018 88 182 2.0 3.0 0.00 0.00 0.00 57 1054.9
20260902012513 89 177 2.0 3.0 0.00 0.00 0.00 57 1054.8
20260902012009 89 186 2.0 4.0 0.00 0.00 0.00 56 1054.8
20260902011504 89 122 2.0 3.0 0.00 0.00 0.00 56 1054.7
20260902011003 89 156 2.0 4.0 0.00 0.00 0.00 55 1054.7
20260902010458 90 161 2.0 3.0 0.00 0.00 0.00 55 1054.8
20260902005957 90 132 2.0 6.0 0.00 0.00 0.00 55 1054.7
20260902005456 90 137 2.0 3.0 0.00 0.00 0.00 54 1054.7
20260902004953 90 130 2.0 6.0 0.00 0.00 0.00 54 1054.7
20260902004452 90 133 3.0 6.0 0.00 0.00 0.00 54 1054.7
20260902003948 91 135 4.0 7.0 0.00 0.00 0.00 53 1054.8
20260902003448 91 147 3.0 6.0 0.00 0.00 0.00 53 1054.8
20260902002943 91 126 5.0 8.0 0.00 0.00 0.00 52 1054.9
20260902002438 91 152 3.0 9.0 0.00 0.00 0.00 52 1054.7
20260902001937 92 143 6.0 9.0 0.00 0.00 0.00 51 1054.8
20260902001432 92 151 2.0 4.0 0.00 0.00 0.00 50 1054.9
20260902000928 93 141 7.0 9.0 0.00 0.00 0.00 49 1054.8
20260902000423 93 147 7.0 13.0 0.00 0.00 0.00 48 1054.7
20260901235918 93 126 8.0 9.0 0.00 0.00 0.00 47 1054.8
20260901235413 94 129 3.0 8.0 0.00 0.00 0.00 46 1054.8
20260901234908 94 156 3.0 6.0 0.00 0.00 0.00 45 1054.7
20260901234402 94 121 3.0 6.0 0.00 0.00 0.00 44 1054.5
20260901233857 94 124 2.0 6.0 0.00 0.00 0.00 44 1054.6
20260901233352 94 98 0.0 2.0 0.00 0.00 0.00 44 1054.7
20260901232848 95 79 2.0 6.0 0.00 0.00 0.00 44 1054.5
20260901232342 95 80 1.0 2.0 0.00 0.00 0.00 44 1054.6
20260901231838 95 70 1.0 7.0 0.00 0.00 0.00 43 1054.5
20260901231335 95 74 4.0 7.0 0.00 0.00 0.00 43 1054.5
20260901230831 96 52 2.0 7.0 0.00 0.00 0.00 42 1054.6
20260901230331 96 79 4.0 9.0 0.00 0.00 0.00 42 1054.6
20260901225826 96 47 4.0 6.0 0.00 0.00 0.00 42 1054.5
20260901225325 97 187 5.0 11.0 0.00 0.00 0.00 43 1054.5
20260901224820 97 100 2.0 7.0 0.00 0.00 0.00 42 1054.5